Content
SEND FEEDBACK

Daily
Averages
Monthly
Summary
Russia

KAZAN', RUSSIA


Home > Europe > Russia
Elevation: 380 feet     Latitude: 55 47N     Longitude: 049 11E

WEATHER
 
SELECT A DAY
Number of Records: 190,392;   Date Range: 3/24/97 - 8/12/14
 
SHARE

PRINT THIS DATA

[ ← Previous Day ]
WEATHER ALMANAC - JANUARY 31, 2013
[ Next Day → ]
[ °C ]   °F
Weather ElementAverageHighLow
Temperature11 °F19.4 °F (10:30 pm)1.4 °F (5:00 am)
Dewpoint-0.7 °F8.6 °F (11:30 pm)-5.8 °F (5:00 am)
Humidity57.8 %73 % (12:30 am)24 % (1:00 pm)
Barometer30.08 in30.23 in (1:00 am)29.92 in (10:30 pm)
Wind Speed7.5 mph15.7 mph (1:00 am)
Wind Gust11.2 mph (9:30 pm)
Weather ElementAverage
Visibility8.3 mi
Wind DirectionESE (106.4 °)

Weather ElementTotal
Precipitation---
Heating Degree Days54.6 (Base 65)
Averaged from 55 records on January 31, 2013
WEATHER CONDITIONS BREAKOUT
WIND DIRECTION BREAKOUT
WEATHER BY HOUR - JANUARY 31, 2013
[ °C ]   °F
Local TimeTemperatureDewpointHumidityBarometerVisibilityWind DirectionWind SpeedGust SpeedPrecipitationEventsConditions
12:30 AM8.6 °F1.4 °F73 %30.18 inSSE (150°)13.4 mphClear
1:00 AM11.0 °F0.0 °F48 %30.23 in6.0 miSSE (150°)6.7 mphOvercast
1:00 AM10.4 °F1.4 °F67 %30.18 inSE (140°)15.7 mphClear
1:30 AM10.4 °F1.4 °F67 %30.18 inSE (140°)15.7 mphClear
2:00 AM8.6 °F-0.4 °F67 %30.18 inSSE (150°)11.2 mphClear
2:30 AM5.0 °F-2.2 °F72 %30.18 inSE (130°)11.2 mphClear
3:00 AM5.0 °F-2.2 °F72 %30.18 inSE (140°)11.2 mphClear
3:30 AM5.0 °F-2.2 °F72 %30.15 inSE (140°)11.2 mphClear
4:00 AM10.0 °F-1.0 °F45 %30.21 in6.0 miSSE (150°)4.5 mph
4:00 AM5.0 °F-4.0 °F66 %30.15 inSE (140°)11.2 mphClear
4:30 AM5.0 °F-4.0 °F66 %30.15 inSE (140°)11.2 mphClear
5:00 AM1.4 °F-5.8 °F72 %30.15 inSE (140°)13.4 mphClear
5:30 AM5.0 °F-4.0 °F66 %30.15 inESE (120°)8.9 mphClear
6:00 AM3.2 °F-4.0 °F72 %30.15 inSE (130°)8.9 mphClear
6:30 AM3.2 °F-4.0 °F72 %30.15 inESE (120°)6.7 mphClear
7:00 AM10.0 °F-4.0 °F37 %30.18 in6.0 miSSE (150°)4.5 mphClear
7:00 AM6.8 °F-4.0 °F61 %30.12 inSE (130°)8.9 mphClear
7:30 AM3.2 °F-5.8 °F66 %30.12 inESE (120°)8.9 mphClear
8:00 AM3.2 °F-5.8 °F66 %30.12 inSE (130°)11.2 mphClear
8:30 AM5.0 °F-5.8 °F61 %30.12 inESE (120°)11.2 mphClear
9:00 AM5.0 °F-5.8 °F61 %30.12 inESE (110°)6.7 mphClear
9:30 AM5.0 °F-5.8 °F61 %30.12 inESE (110°)8.9 mphClear
10:00 AM9.0 °F-5.0 °F36 %30.17 in12.0 miESE (110°)4.5 mphClear
10:00 AM6.8 °F-4.0 °F61 %30.12 inNE (40°)4.5 mphClear
10:30 AM6.8 °F-4.0 °F61 %30.12 inENE (60°)6.7 mphClear
11:00 AM5.0 °F-4.0 °F66 %30.09 inESE (110°)8.9 mphClear
11:30 AM8.6 °F-4.0 °F57 %30.09 inESE (110°)6.7 mphClear
12:00 PM8.6 °F-4.0 °F57 %30.09 inESE (110°)8.9 mphClear
12:30 PM10.4 °F-4.0 °F52 %30.09 inNNE (20°)4.5 mphClear
1:00 PM15.0 °F-5.0 °F24 %30.12 in12.0 miESE (110°)4.5 mphClear
1:00 PM12.2 °F-4.0 °F48 %30.06 inNorth (10°)4.5 mphClear
1:30 PM12.2 °F-2.2 °F53 %30.06 inEast (80°)4.5 mphClear
2:00 PM14.0 °F-2.2 °F49 %30.06 inENE (60°)4.5 mphClear
2:30 PM12.2 °F-0.4 °F57 %30.04 inENE (70°)4.5 mphClear
3:00 PM14.0 °F-0.4 °F53 %30.04 inEast (100°)4.5 mphClear
3:30 PM15.8 °F-0.4 °F49 %30.04 inEast (90°)6.7 mphClear
4:00 PM18.0 °F-1.0 °F28 %30.07 in12.0 miESE (110°)4.5 mphClear
4:00 PM15.8 °F1.4 °F53 %30.04 inENE (60°)4.5 mphClear
4:30 PM15.8 °F1.4 °F53 %30.04 inEast (80°)6.7 mphClear
5:00 PM15.8 °F1.4 °F53 %30.01 inEast (80°)4.5 mphClear
5:30 PM15.8 °F3.2 °F58 %30.01 inEast (100°)4.5 mphClear
6:00 PM17.6 °F3.2 °F53 %30.01 inNE (50°)4.5 mphClear
6:30 PM15.8 °F3.2 °F58 %29.98 inEast (100°)4.5 mphClear
7:00 PM18.0 °F2.0 °F35 %30.03 in6.0 miEast (100°)4.5 mphClear
7:00 PM15.8 °F3.2 °F58 %29.98 inESE (110°)6.7 mphClear
7:30 PM15.8 °F5.0 °F62 %29.98 inSE (130°)4.5 mphClear
8:00 PM15.8 °F3.2 °F58 %29.98 inEast (100°)4.5 mphClear
8:30 PM15.8 °F3.2 °F58 %29.98 inESE (110°)6.7 mphClear
9:00 PM17.6 °F5.0 °F58 %29.95 inEast (90°)6.7 mphClear
9:30 PM15.8 °F5.0 °F62 %29.95 inEast (80°)4.5 mph11.2 mphClear
10:00 PM19.0 °F6.0 °F42 %29.98 in6.0 miESE (110°)4.5 mphMostly Cloudy
10:00 PM17.6 °F6.8 °F63 %29.95 inEast (90°)8.9 mphClear
10:30 PM19.4 °F6.8 °F58 %29.92 inEast (100°)8.9 mphClear
11:00 PM17.6 °F6.8 °F63 %29.92 inESE (110°)8.9 mphClear
11:30 PM15.8 °F8.6 °F73 %29.92 inESE (110°)8.9 mphClear
Hourly data recorded from UWKD, located miles away from Kazan', Russia







STORIES FROM OUR PARTNERS